Regional Weather Roundup
Issued by NWS

Home | Current Version | Previous Version | Graphics & Text | Print | Product List | Glossary On
Versions: 1 2 3 4 5 6 7 8 9 10 11 12 13 14 15 16 17 18 19 20 21 22 23 24 25 26 27 28 29 30 31 32 33 34 35 36 37 38 39 40 41 42 43 44 45 46 47 48 49 50
000
ASUS45 KABQ 011110
RWRNM
WEATHER ROUNDUP FOR NEW MEXICO
NATIONAL WEATHER SERVICE ALBUQUERQUE NM
500 AM MDT WED OCT 01 2014

NOTE: "FAIR" MEANS FEW OR NO CLOUDS BELOW 12,000 FEET AGL WITH NO
       SIGNIFICANT WEATHER OR OBSTRUCTIONS TO VISION.

      THIS PRODUCT IS RELEASED AS TWO VERSIONS.  ONE VERSION NEAR
      THE TOP OF THE HOUR CONTAINING PRELIMINARY DATA FROM ALBUQUERQUE
      AND OTHER STATIONS.  A FINAL VERSION WITH ADDITIONAL DATA IS
      ISSUED ABOUT 10 MINUTES AFTER THE HOUR.

NMZ501-503-504-510>518-011200-
NORTHWEST PLATEAU/NORTHCENTRAL MOUNTAINS

CITY           SKY/WX    TMP DP  RH WIND       PRES   REMARKS
FARMINGTON     CLEAR     46  40  79 E8        29.94S
LOS ALAMOS     PTCLDY    49  31  51 CALM      30.04R
SANTA FE       CLEAR     42  31  64 N5        29.99R
TAOS           PTCLDY    34  27  75 N6        30.04S WCI  29
ANGEL FIRE     FAIR      25  22  88 CALM      30.08S

$$
NMZ402-403-502-505>509-011200-
WESTCENTRAL MOUNTAINS/SOUTHWEST MOUNTAINS

CITY           SKY/WX    TMP DP  RH WIND       PRES   REMARKS
GALLUP         CLEAR     44  36  73 CALM      30.00S
GRANTS         CLEAR     34  28  80 NW5       30.04R WCI  30
SILVER CITY    CLEAR     48  36  61 NW10      29.99S

$$
NMZ407-409-411-412-011200-
SOUTHERN DESERTS

CITY           SKY/WX    TMP DP  RH WIND       PRES   REMARKS
LORDSBURG      FAIR      54  36  50 MISG      29.93S
DEMING         CLEAR     52  39  61 W5        29.92S
LAS CRUCES     CLEAR     55  36  48 W8        29.93R
HOLLOMAN AFB   PTCLDY    57  40  52 S7        29.87S
ALAMOGORDO     PTCLDY    54  39  58 SW3       29.89S
T OR C         CLEAR     55  37  50 NW10      29.92S

$$
NMZ519>523-011200-
CENTRAL VALLEYS/CENTRAL HIGHLANDS

CITY           SKY/WX    TMP DP  RH WIND       PRES   REMARKS
ALBUQUERQUE    CLEAR     53  35  50 CALM      29.96F
DOUBLE EAGLE   CLEAR     40  30  66 W5        29.98S
MORIARTY ARPT  FAIR      33  29  86 CALM      30.00F
CLINES CORNERS PTCLDY    43  31  62 W9        30.00S
BELEN          NOT AVBL
SOCORRO        FAIR      56  35  44 CALM      29.93F

$$
NMZ524>526-539-540-011200-
SOUTHCENTRAL MOUNTAINS

CITY           SKY/WX    TMP DP  RH WIND       PRES   REMARKS
RUIDOSO        NOT AVBL

$$
NMZ527>531-011200-
NORTHEAST HIGHLANDS/NORTHEAST PLAINS

CITY           SKY/WX    TMP DP  RH WIND       PRES   REMARKS
LAS VEGAS      CLEAR     42  29  59 N3        29.99S
RATON          CLEAR     38  34  85 NE6       29.95R WCI  33
CLAYTON        CLEAR     54  35  48 NW14      29.86S

$$
NMZ532>537-011200-
EASTCENTRAL PLAINS

CITY           SKY/WX    TMP DP  RH WIND       PRES   REMARKS
TUCUMCARI      CLEAR     53  42  66 W10       29.85R
CANNON AFB     CLEAR     56  41  56 N10       29.86R
CLOVIS AIRPORT   N/A     52  41  66 NW9       29.88R

$$
NMZ028-029-538-011200-
SOUTHEAST PLAINS

CITY           SKY/WX    TMP DP  RH WIND       PRES   REMARKS
ROSWELL        CLEAR     52  48  86 W6        29.85R
CARLSBAD       CLEAR     59  52  77 CALM      29.82R


$$


USA.gov is the U.S. government's official web portal to all federal, state and local government web resources and services.